Location: Newark
(40.9833°N, 0.0333°W)
Time: 03:44:28
(UTC+00:00)

Transit 2A Rocket - Pass Details

Date: 31 October 2020
Orbit: 588 x 914 km, 66.7° (Epoch: 26 November)

Event Time Altitude Azimuth Distance (km) Brightness Sun altitude
Rises 10:20:21 0° 252° (WSW) 3,541 8.4 31.4°
Reaches altitude 10° 10:23:31 10° 267° (W) 2,592 7.6 31.7°
Maximum altitude 10:28:03 22° 316° (NW) 1,872 6.7 32.0°
Drops below altitude 10° 10:32:28 10° 5° (N) 2,509 7.3 32.3°
Sets 10:35:30 0° 21° (NNE) 3,398 8.0 32.5°
